FW4298 Weather Reports


time (UTC)temp
C
wind
direction
speed
KPH
gust
KPH
rain 1hr
cm
rain 24hr
cm
rain mn
cm
humidity
%
barometer
mb
20260506201443 15 315 9.7 24.1 0.00 0.00 0.00 88 1014.8
20260506200942 15 325 9.7 25.7 0.00 0.00 0.00 88 1014.8
20260506200443 15 323 9.7 25.7 0.00 0.00 0.00 87 1014.7
20260506195943 15 314 9.7 25.7 0.00 0.00 0.00 87 1014.8
20260506195705 15 313 11.3 25.7 0.00 0.00 0.00 87 1014.6
20260506194943 16 333 12.9 27.4 0.00 0.00 0.00 86 1014.7
20260506194442 16 342 12.9 27.4 0.00 0.00 0.00 86 1014.8
20260506194201 16 315 12.9 25.7 0.00 0.00 0.00 86 1014.7
20260506193443 16 308 11.3 24.1 0.00 0.00 0.00 86 1014.6
20260506192939 16 9 9.7 20.9 0.00 0.00 0.00 86 1014.6
20260506192438 16 341 9.7 22.5 0.00 0.00 0.00 85 1014.8
20260506191939 17 351 9.7 22.5 0.00 0.00 0.00 85 1014.8
20260506191439 17 309 11.3 24.1 0.00 0.00 0.00 86 1014.7
20260506191206 17 294 11.3 24.1 0.00 0.00 0.00 85 1014.7
20260506190439 17 355 11.3 22.5 0.00 0.00 0.00 86 1014.8
20260506185939 17 342 11.3 22.5 0.00 0.00 0.00 86 1014.9
20260506185438 17 304 12.9 27.4 0.00 0.00 0.00 86 1014.8
20260506184938 17 265 11.3 27.4 0.00 0.00 0.00 86 1014.7
20260506184439 17 308 11.3 22.5 0.00 0.00 0.00 86 1014.7
20260506183937 17 337 9.7 20.9 0.00 0.00 0.00 87 1014.6
20260506183437 17 302 9.7 24.1 0.00 0.00 0.00 86 1014.6
20260506182936 18 27 11.3 24.1 0.00 0.00 0.00 86 1014.5
20260506182437 18 309 11.3 24.1 0.00 0.00 0.00 85 1014.7
20260506181936 19 351 12.9 22.5 0.00 0.00 0.00 84 1014.6
20260506181437 20 327 12.9 22.5 0.00 0.00 0.00 83 1014.6
20260506180937 20 11 11.3 22.5 0.00 0.00 0.00 81 1014.6
20260506180437 21 0 11.3 20.9 0.00 0.00 0.00 81 1014.4
20260506180157 21 295 11.3 20.9 0.00 0.00 0.00 81 1014.4
20260506175655 22 327 8.0 20.9 0.00 0.00 0.00 82 1014.1
20260506174937 21 340 6.4 12.9 0.00 0.00 0.00 82 1014.1
20260506174435 21 19 6.4 14.5 0.00 0.00 0.00 82 1014.0
20260506173934 21 23 6.4 14.5 0.00 0.00 0.00 82 1014.0
20260506173435 20 0 4.8 12.9 0.00 0.00 0.00 85 1014.0
20260506173153 20 0 4.8 12.9 0.00 0.00 0.00 85 1013.7
20260506172434 20 42 4.8 12.9 0.00 0.00 0.00 86 1013.7
20260506171934 19 88 6.4 12.9 0.00 0.00 0.00 87 1013.5
20260506171435 18 18 6.4 12.9 0.00 0.00 0.00 88 1013.5
20260506170933 18 9 4.8 12.9 0.00 0.00 0.00 88 1013.5
20260506170434 18 53 4.8 12.9 0.00 0.00 0.00 88 1013.6
20260506165935 18 0 4.8 16.1 0.00 0.00 0.00 89 1013.7
20260506165433 18 84 6.4 16.1 0.00 0.00 0.00 89 1013.6
20260506164935 17 15 6.4 12.9 0.00 0.00 0.00 90 1013.6
20260506164434 17 28 6.4 14.5 0.00 0.00 0.00 92 1013.6
20260506164157 17 80 6.4 14.5 0.00 0.00 0.00 92 1013.7
20260506163438 16 57 4.8 12.9 0.00 0.00 0.00 95 1014.0
20260506163434 16 10 6.4 12.9 0.00 0.00 0.00 95 1013.7
20260506162434 16 44 4.8 14.5 0.00 0.00 0.00 96 1014.1
20260506161933 15 75 4.8 14.5 0.00 0.00 0.00 96 1014.5
20260506161434 15 47 4.8 14.5 0.00 0.00 0.00 96 1014.7
20260506161204 15 13 6.4 19.3 0.00 0.00 0.00 95 1014.1
20260506160713 15 14 6.4 19.3 0.00 0.00 0.00 95 1014.1
20260506155935 15 49 8.0 19.3 0.00 0.00 0.00 94 1014.7
20260506155434 15 346 8.0 19.3 0.00 0.00 0.00 94 1015.1
20260506154934 15 0 8.0 20.9 0.00 0.00 0.00 94 1015.1
20260506154434 15 340 9.7 20.9 0.00 0.00 0.00 94 1014.9
20260506154205 15 9 9.7 20.9 0.00 0.00 0.00 94 1015.2
20260506153435 15 19 9.7 20.9 0.00 0.00 0.00 94 1015.1
20260506152934 16 306 9.7 20.9 0.00 0.00 0.00 94 1015.3
20260506152434 16 27 11.3 24.1 0.00 0.00 0.00 94 1015.2
20260506151935 16 335 11.3 25.7 0.00 0.00 0.00 94 1015.1
20260506151434 16 330 11.3 25.7 0.00 0.00 0.00 94 1015.0
20260506150934 17 341 11.3 29.0 0.00 0.00 0.00 95 1015.7
20260506150434 17 277 9.7 29.0 0.00 0.00 0.00 95 1015.2
20260506145934 17 15 8.0 27.4 0.00 0.00 0.00 95 1014.6
20260506145435 17 331 9.7 25.7 0.00 0.00 0.00 95 1014.0
20260506144934 17 350 12.9 20.9 0.00 0.00 0.00 95 1013.8
20260506144435 17 342 12.9 25.7 0.00 0.00 0.00 95 1013.7
20260506143934 17 11 9.7 25.7 0.00 0.00 0.00 94 1013.5
20260506143435 17 351 9.7 24.1 0.00 0.00 0.00 95 1013.4
20260506142930 17 10 11.3 24.1 0.00 0.00 0.00 94 1013.5
20260506142424 18 336 9.7 22.5 0.00 0.00 0.00 95 1013.6
20260506142146 18 9 8.0 22.5 0.00 0.00 0.00 95 1013.2
20260506141412 18 14 8.0 19.3 0.00 0.00 0.00 95 1012.8
20260506140910 18 15 8.0 19.3 0.00 0.00 0.00 95 1012.7
20260506140410 18 44 8.0 19.3 0.00 0.00 0.00 95 1012.6
20260506135910 19 348 8.0 19.3 0.00 0.00 0.00 95 1012.5
20260506135410 19 347 9.7 25.7 0.00 0.00 0.00 95 1012.5
20260506134911 19 331 9.7 25.7 0.00 0.00 0.00 94 1012.6
20260506134410 20 22 11.3 25.7 0.00 0.00 0.00 94 1012.3
20260506134134 21 350 8.0 25.7 0.00 0.00 0.00 93 1012.1
20260506133410 22 294 1.6 8.0 0.00 0.00 0.00 98 1011.7
20260506132907 22 45 1.6 4.8 0.00 0.00 0.00 98 1011.6
20260506132408 22 44 1.6 4.8 0.00 0.00 0.00 98 1011.6
20260506131908 22 44 1.6 4.8 0.00 0.00 0.00 98 1011.7
20260506131406 22 45 3.2 4.8 0.00 0.00 0.00 98 1011.7
20260506130907 22 49 3.2 4.8 0.00 0.00 0.00 98 1011.5
20260506130405 22 57 1.6 4.8 0.00 0.00 0.00 98 1011.4
20260506130131 22 87 0.0 4.8 0.00 0.00 0.00 98 1011.2
20260506125406 22 87 0.0 4.8 0.00 0.00 0.00 98 1011.0
20260506125147 22 87 1.6 4.8 0.00 0.00 0.00 98 1011.1
20260506124406 22 87 1.6 4.8 0.00 0.00 0.00 98 1011.2
20260506123905 22 114 0.0 3.2 0.00 0.00 0.00 98 1011.0
20260506123406 22 169 0.0 0.0 0.00 0.00 0.00 98 1010.9
20260506122907 22 169 0.0 0.0 0.00 0.00 0.00 98 1011.0
20260506122635 22 169 0.0 1.6 0.00 0.00 0.00 97 1010.9
20260506121904 22 169 0.0 1.6 0.00 0.00 0.00 97 1010.8
20260506121417 22 169 0.0 1.6 0.00 0.00 0.00 97 1010.7
20260506120916 22 169 0.0 1.6 0.00 0.00 0.00 97 1010.7
20260506120406 22 169 0.0 1.6 0.00 0.00 0.00 97 1010.7
20260506120123 22 169 0.0 4.8 0.00 0.00 0.00 97 1010.6
20260506115404 22 169 1.6 4.8 0.00 0.00 0.00 97 1010.6
20260506115123 22 169 1.6 6.4 0.00 0.00 0.00 97 1010.6
20260506114653 22 169 1.6 6.4 0.00 0.00 0.00 97 1010.6
20260506113900 22 169 1.6 6.4 0.00 0.00 0.00 97 1010.5
20260506113400 22 173 1.6 3.2 0.00 0.00 0.00 97 1010.6
20260506112858 22 173 3.2 8.0 0.00 0.00 0.00 97 1010.6
20260506112356 22 173 3.2 8.0 0.00 0.00 0.00 97 1010.6
20260506112332 22 179 3.2 9.7 0.00 0.00 0.00 97 1010.7
20260506111354 23 172 3.2 9.7 0.00 0.00 0.00 97 1010.9
20260506110847 23 166 3.2 6.4 0.00 0.00 0.00 97 1010.9
20260506110348 23 194 1.6 4.8 0.00 0.00 0.00 97 1011.0
20260506105848 23 195 0.0 4.8 0.00 0.00 0.00 97 1011.1
20260506105347 23 195 0.0 4.8 0.00 0.00 0.00 96 1011.1
20260506104845 23 195 1.6 4.8 0.00 0.00 0.00 96 1011.0
20260506104346 23 195 1.6 4.8 0.00 0.00 0.00 97 1011.0
20260506103844 23 194 1.6 4.8 0.00 0.00 0.00 96 1010.9
20260506103341 23 194 3.2 6.4 0.00 0.00 0.00 96 1011.0
20260506102842 23 178 1.6 6.4 0.00 0.00 0.00 96 1010.9
20260506102341 23 162 1.6 8.0 0.00 0.00 0.00 96 1010.9
20260506101841 23 160 1.6 8.0 0.00 0.00 0.00 95 1010.8
20260506101339 23 157 1.6 8.0 0.00 0.00 0.00 95 1010.7
20260506101106 23 156 3.2 8.0 0.00 0.00 0.00 95 1010.7
20260506100337 23 149 3.2 9.7 0.00 0.00 0.00 95 1010.5
20260506095838 23 182 3.2 9.7 0.00 0.00 0.00 95 1010.4
20260506095338 23 158 3.2 8.0 0.00 0.00 0.00 95 1010.5
20260506094837 23 157 3.2 8.0 0.00 0.00 0.00 95 1010.4
20260506094338 23 156 3.2 8.0 0.00 0.00 0.00 94 1010.4
20260506093837 23 144 3.2 8.0 0.00 0.00 0.00 94 1010.4
20260506093338 23 150 4.8 8.0 0.00 0.00 0.00 94 1010.3
20260506092838 23 167 4.8 8.0 0.00 0.00 0.00 94 1010.3
20260506092338 23 166 4.8 8.0 0.00 0.00 0.00 94 1010.1
20260506091837 23 159 4.8 12.9 0.00 0.00 0.00 93 1009.9
20260506091605 23 168 4.8 12.9 0.00 0.00 0.00 93 1010.0
20260506091102 23 172 4.8 12.9 0.00 0.00 0.00 93 1009.9
20260506090338 23 209 4.8 12.9 0.00 0.00 0.00 93 1009.8
20260506085837 23 155 4.8 12.9 0.00 0.00 0.00 93 1009.8
20260506085338 23 163 6.4 14.5 0.00 0.00 0.00 93 1009.6
20260506084837 23 155 8.0 19.3 0.00 0.00 0.00 93 1009.4
20260506084815 23 175 8.0 19.3 0.00 0.00 0.00 93 1009.4
20260506083838 23 171 8.0 17.7 0.00 0.00 0.00 93 1009.4
20260506083337 23 191 8.0 14.5 0.00 0.00 0.00 93 1009.6
20260506082835 23 148 8.0 20.9 0.00 0.00 0.00 93 1009.8
20260506082335 23 206 8.0 20.9 0.00 0.00 0.00 93 1009.6
20260506081835 23 201 8.0 16.1 0.00 0.00 0.00 93 1009.6
20260506081333 23 198 8.0 20.9 0.00 0.00 0.00 93 1009.5
20260506080832 23 190 9.7 22.5 0.00 0.00 0.00 93 1009.5
20260506080332 23 175 9.7 22.5 0.00 0.00 0.00 92 1009.5
20260506073326 23 199 8.0 25.7 0.00 0.00 0.00 93 1009.9
20260506072823 23 169 8.0 25.7 0.00 0.00 0.00 93 1009.9
20260506072322 23 186 9.7 25.7 0.00 0.00 0.00 93 1010.1
20260506071819 23 159 11.3 29.0 0.00 0.00 0.00 93 1010.0
20260506071807 23 159 11.3 29.0 0.00 0.00 0.00 93 1010.0
20260506070820 23 169 12.9 30.6 0.00 0.00 0.00 93 1010.0
20260506070316 23 191 11.3 30.6 0.00 0.00 0.00 93 1010.0
20260506062309 23 161 11.3 22.5 0.00 0.00 0.00 93 1009.6
20260506061809 23 174 11.3 22.5 0.00 0.00 0.00 93 1009.5
20260506061308 23 176 11.3 22.5 0.00 0.00 0.00 93 1009.5
20260506061254 23 171 11.3 27.4 0.00 0.00 0.00 93 1009.5
20260506060528 23 137 11.3 27.4 0.00 0.00 0.00 93 1009.4
20260506051254 23 166 11.3 27.4 0.00 0.00 0.00 93 1009.6
20260506050755 24 165 9.7 27.4 0.00 0.00 0.00 93 1009.8
20260506050255 23 173 8.0 17.7 0.00 0.00 0.00 93 1009.9
20260506044752 23 201 8.0 19.3 0.00 0.00 0.00 92 1009.5
20260506044252 23 190 8.0 22.5 0.00 0.00 0.00 92 1009.5
20260506043752 24 184 8.0 22.5 0.00 0.00 0.00 92 1009.6
20260506043252 24 197 8.0 17.7 0.00 0.00 0.00 92 1009.5
20260506043017 24 167 9.7 19.3 0.00 0.00 0.00 92 1009.6
20260506042531 24 160 9.7 19.3 0.00 0.00 0.00 92 1009.8
20260506042029 24 131 9.7 17.7 0.00 0.00 0.00 91 1009.3
20260506042003 24 157 9.7 17.7 0.00 0.00 0.00 91 1009.5
20260506040745 24 138 8.0 17.7 0.00 0.00 0.00 91 1009.4
20260506040242 24 198 8.0 17.7 0.00 0.00 0.00 91 1009.3
20260506035739 24 194 8.0 17.7 0.00 0.00 0.00 91 1009.3
20260506035239 24 165 8.0 16.1 0.00 0.00 0.00 90 1009.1
20260506034740 24 167 4.8 11.3 0.00 0.00 0.00 90 1009.3
20260506034240 24 155 4.8 11.3 0.00 0.00 0.00 89 1009.3
20260506033739 24 150 4.8 11.3 0.00 0.00 0.00 89 1009.1
20260506033238 24 155 4.8 14.5 0.00 0.00 0.00 89 1009.1
20260506032737 24 184 4.8 14.5 0.00 0.00 0.00 89 1009.0
20260506032459 25 155 4.8 16.1 0.00 0.00 0.00 88 1009.1
20260506031735 25 169 4.8 16.1 0.00 0.00 0.00 88 1009.0
20260506031233 25 175 6.4 12.9 0.00 0.00 0.00 88 1009.0
20260506030734 25 165 6.4 12.9 0.00 0.00 0.00 88 1008.9
20260506030233 25 155 6.4 16.1 0.00 0.00 0.00 88 1008.8
20260506025734 25 169 6.4 16.1 0.00 0.00 0.00 88 1008.8
20260506025233 25 161 6.4 11.3 0.00 0.00 0.00 88 1008.7
20260506025000 25 186 6.4 11.3 0.00 0.00 0.00 87 1008.7
20260506024234 25 165 6.4 11.3 0.00 0.00 0.00 87 1008.7
20260506023736 25 147 6.4 12.9 0.00 0.00 0.00 87 1008.6
20260506023506 25 178 6.4 12.9 0.00 0.00 0.00 87 1008.4
20260506022734 25 150 6.4 12.9 0.00 0.00 0.00 87 1008.4
20260506022234 25 160 6.4 12.9 0.00 0.00 0.00 87 1008.4
20260506021733 25 156 6.4 12.9 0.00 0.00 0.00 86 1008.3
20260506021231 25 134 4.8 12.9 0.00 0.00 0.00 86 1008.1
20260506020729 25 176 4.8 11.3 0.00 0.00 0.00 86 1008.2
20260506020228 25 154 4.8 11.3 0.00 0.00 0.00 85 1008.1
20260506015726 25 153 4.8 9.7 0.00 0.00 0.00 85 1008.1
20260506015225 25 152 3.2 9.7 0.00 0.00 0.00 84 1008.0
20260506014723 25 155 3.2 9.7 0.00 0.00 0.00 84 1007.9
20260506014225 26 163 4.8 11.3 0.00 0.00 0.00 84 1008.0
20260506013723 26 165 6.4 12.9 0.00 0.00 0.00 83 1007.8
20260506013224 26 146 6.4 14.5 0.00 0.00 0.00 83 1007.7
20260506013215 26 164 6.4 14.5 0.00 0.00 0.00 83 1007.7
20260506012221 26 150 6.4 16.1 0.00 0.00 0.00 82 1007.6
20260506011721 26 168 6.4 16.1 0.00 0.00 0.00 82 1007.6
20260506011442 26 163 8.0 17.7 0.00 0.00 0.00 82 1007.5
20260506010947 26 158 8.0 17.7 0.00 0.00 0.00 81 1007.5
20260506010213 26 159 6.4 17.7 0.00 0.00 0.00 81 1007.4
20260506005713 26 168 6.4 17.7 0.00 0.00 0.00 80 1007.4
20260506005213 27 155 8.0 16.1 0.00 0.00 0.00 80 1007.4
20260506004713 27 211 8.0 19.3 0.00 0.00 0.00 80 1007.4
20260506004213 27 136 8.0 22.5 0.00 0.00 0.00 79 1007.5
20260506003713 27 163 8.0 22.5 0.00 0.00 0.00 79 1007.5
20260506003449 27 144 9.7 22.5 0.00 0.00 0.00 79 1007.6
20260506002937 27 163 11.3 22.5 0.00 0.00 0.00 78 1007.6
20260506002211 27 0 8.0 19.3 0.00 0.00 0.00 78 1007.5
20260506001942 27 158 6.4 16.1 0.00 0.00 0.00 79 1007.6
20260506001208 27 193 8.0 20.9 0.00 0.00 0.00 79 1007.6
20260506000706 27 140 8.0 20.9 0.00 0.00 0.00 78 1007.6
20260506000440 27 180 9.7 22.5 0.00 0.00 0.00 79 1007.6
20260505235707 27 160 9.7 22.5 0.00 0.00 0.00 78 1007.6
20260505235205 27 156 8.0 19.3 0.00 0.00 0.00 77 1007.7
20260505234706 28 157 6.4 17.7 0.00 0.00 0.00 77 1007.6
20260505234205 28 155 8.0 17.7 0.00 0.00 0.00 77 1007.5
20260505233703 28 175 8.0 19.3 0.00 0.00 0.00 77 1007.5
20260505233157 28 197 11.3 24.1 0.00 0.00 0.00 76 1007.4
20260505232926 28 155 9.7 24.1 0.00 0.00 0.00 76 1007.4
20260505232144 28 155 9.7 19.3 0.00 0.00 0.00 76 1007.4
20260505231639 28 159 9.7 19.3 0.00 0.00 0.00 76 1007.3
20260505231134 28 186 9.7 20.9 0.00 0.00 0.00 76 1007.2
20260505230902 28 211 8.0 20.9 0.00 0.00 0.00 76 1007.3
20260505230402 28 160 9.7 19.3 0.00 0.00 0.00 76 1007.2
20260505225635 28 206 11.3 19.3 0.00 0.00 0.00 75 1007.2
20260505225135 28 176 9.7 19.3 0.00 0.00 0.00 75 1007.1
20260505224634 28 151 9.7 19.3 0.00 0.00 0.00 75 1007.1
20260505224135 28 170 9.7 19.3 0.00 0.00 0.00 75 1007.1
20260505223900 29 120 9.7 19.3 0.00 0.00 0.00 74 1007.1
20260505223136 29 201 9.7 19.3 0.00 0.00 0.00 74 1007.2
20260505222634 29 164 9.7 20.9 0.00 0.00 0.00 74 1007.1
20260505222135 29 157 12.9 22.5 0.00 0.00 0.00 74 1007.1
20260505221635 29 154 12.9 22.5 0.00 0.00 0.00 74 1007.0
20260505221134 29 173 11.3 22.5 0.00 0.00 0.00 74 1006.9
20260505220634 29 177 11.3 25.7 0.00 0.00 0.00 73 1006.9
20260505220135 29 121 12.9 25.7 0.00 0.00 0.00 74 1007.0
20260505215635 29 178 12.9 22.5 0.00 0.00 0.00 73 1007.0
20260505215133 30 146 11.3 22.5 0.00 0.00 0.00 72 1007.3
20260505214634 30 126 11.3 25.7 0.00 0.00 0.00 72 1007.2
20260505214625 30 181 11.3 25.7 0.00 0.00 0.00 72 1007.3
20260505213621 30 184 9.7 24.1 0.00 0.00 0.00 72 1007.2
20260505213117 30 197 11.3 24.1 0.00 0.00 0.00 71 1007.2
20260505212617 30 151 11.3 20.9 0.00 0.00 0.00 71 1007.1
20260505212351 30 180 11.3 24.1 0.00 0.00 0.00 72 1007.4
20260505211617 30 179 12.9 24.1 0.00 0.00 0.00 71 1007.4
20260505211117 30 137 12.9 24.1 0.00 0.00 0.00 72 1007.4
20260505210617 30 174 12.9 24.1 0.00 0.00 0.00 71 1007.5
20260505210117 30 142 12.9 22.5 0.00 0.00 0.00 73 1007.8
20260505205617 30 157 12.9 27.4 0.00 0.00 0.00 73 1007.8
20260505205117 30 180 12.9 27.4 0.00 0.00 0.00 74 1007.8
20260505204617 30 176 11.3 20.9 0.00 0.00 0.00 72 1007.8
20260505204117 30 144 9.7 19.3 0.00 0.00 0.00 73 1008.0
20260505203617 30 194 9.7 25.7 0.00 0.00 0.00 73 1008.0
20260505203117 30 182 9.7 25.7 0.00 0.00 0.00 72 1007.9
20260505202617 29 226 9.7 25.7 0.00 0.00 0.00 72 1008.0
20260505202117 29 166 12.9 29.0 0.00 0.00 0.00 74 1008.0
20260505201624 29 182 11.3 29.0 0.00 0.00 0.00 72 1008.2